Year,Month,Day,Hour,Minute,Value (Times are PST for temperature in C)
2013,04,26,00,00,7.70
2013,04,26,00,01,7.70
2013,04,26,00,02,7.70
2013,04,26,00,03,7.70
2013,04,26,00,04,7.70
2013,04,26,00,05,7.70
2013,04,26,00,06,7.70
2013,04,26,00,07,7.70
2013,04,26,00,08,7.70
2013,04,26,00,09,7.70
2013,04,26,00,10,7.70
2013,04,26,00,11,7.70
2013,04,26,00,12,7.70
2013,04,26,00,13,7.80
2013,04,26,00,14,7.80
2013,04,26,00,15,7.80
2013,04,26,00,16,7.80
2013,04,26,00,17,7.80
2013,04,26,00,18,7.80
2013,04,26,00,19,7.80
2013,04,26,00,20,7.80
2013,04,26,00,21,7.80
2013,04,26,00,22,7.80
2013,04,26,00,23,7.80
2013,04,26,00,24,7.80
2013,04,26,00,25,7.80
2013,04,26,00,26,7.80
2013,04,26,00,27,7.80
2013,04,26,00,28,7.80
2013,04,26,00,29,7.80
2013,04,26,00,30,7.80
2013,04,26,00,31,7.80
2013,04,26,00,32,7.80
2013,04,26,00,33,7.80
2013,04,26,00,34,7.80
2013,04,26,00,35,7.80
2013,04,26,00,36,7.80
2013,04,26,00,37,7.80
2013,04,26,00,38,7.80
2013,04,26,00,39,7.80
2013,04,26,00,40,7.80
2013,04,26,00,41,7.80
2013,04,26,00,42,7.80
2013,04,26,00,43,7.80
2013,04,26,00,44,7.80
2013,04,26,00,45,7.80
2013,04,26,00,46,7.80
2013,04,26,00,47,7.80
2013,04,26,00,48,7.80
2013,04,26,00,49,7.80
2013,04,26,00,50,7.80
2013,04,26,00,51,7.80
2013,04,26,00,52,7.80
2013,04,26,00,53,7.80
2013,04,26,00,54,7.80
2013,04,26,00,55,7.80
2013,04,26,00,56,7.80
2013,04,26,00,57,7.80
2013,04,26,00,58,7.80
2013,04,26,00,59,7.80
2013,04,26,01,00,7.80
2013,04,26,01,01,7.80
2013,04,26,01,02,7.80
2013,04,26,01,03,7.70
2013,04,26,01,04,7.70
2013,04,26,01,05,7.70
2013,04,26,01,06,7.70
2013,04,26,01,07,7.80
2013,04,26,01,08,7.80
2013,04,26,01,09,7.80
2013,04,26,01,10,7.80
2013,04,26,01,11,7.80
2013,04,26,01,12,7.80
2013,04,26,01,13,7.80
2013,04,26,01,14,7.80
2013,04,26,01,15,7.80
2013,04,26,01,16,7.80
2013,04,26,01,17,7.80
2013,04,26,01,18,7.80
2013,04,26,01,19,7.80
2013,04,26,01,20,7.80
2013,04,26,01,21,7.80
2013,04,26,01,22,7.80
2013,04,26,01,23,7.80
2013,04,26,01,24,7.80
2013,04,26,01,25,7.80
2013,04,26,01,26,7.80
2013,04,26,01,27,7.80
2013,04,26,01,28,7.80
2013,04,26,01,29,7.80
2013,04,26,01,30,7.80
2013,04,26,01,31,7.80
2013,04,26,01,32,7.80
2013,04,26,01,33,7.80
2013,04,26,01,34,7.80
2013,04,26,01,35,7.80
2013,04,26,01,36,7.80
2013,04,26,01,37,7.80
2013,04,26,01,38,7.80
2013,04,26,01,39,7.80
2013,04,26,01,40,7.80
2013,04,26,01,41,7.80
2013,04,26,01,42,7.80
2013,04,26,01,43,7.80
2013,04,26,01,44,7.80
2013,04,26,01,45,7.80
2013,04,26,01,46,7.80
2013,04,26,01,47,7.80
2013,04,26,01,48,7.80
2013,04,26,01,49,7.80
2013,04,26,01,50,7.80
2013,04,26,01,51,7.80
2013,04,26,01,52,7.80
2013,04,26,01,53,7.80
2013,04,26,01,54,7.80
2013,04,26,01,55,7.80
2013,04,26,01,56,7.80
2013,04,26,01,57,7.80
2013,04,26,01,58,7.80
2013,04,26,01,59,7.80
2013,04,26,02,00,7.70
2013,04,26,02,01,7.70
2013,04,26,02,02,7.70
2013,04,26,02,03,7.70
2013,04,26,02,04,7.70
2013,04,26,02,05,7.70
2013,04,26,02,06,7.70
2013,04,26,02,07,7.70
2013,04,26,02,08,7.70
2013,04,26,02,09,7.70
2013,04,26,02,10,7.80
2013,04,26,02,11,7.80
2013,04,26,02,12,7.80
2013,04,26,02,13,7.80
2013,04,26,02,14,7.80
2013,04,26,02,15,7.80
2013,04,26,02,16,7.80
2013,04,26,02,17,7.80
2013,04,26,02,18,7.80
2013,04,26,02,19,7.80
2013,04,26,02,20,7.70
2013,04,26,02,21,7.70
2013,04,26,02,22,7.70
2013,04,26,02,23,7.70
2013,04,26,02,24,7.70
2013,04,26,02,25,7.70
2013,04,26,02,26,7.70
2013,04,26,02,27,7.70
2013,04,26,02,28,7.70
2013,04,26,02,29,7.70
2013,04,26,02,30,7.70
2013,04,26,02,31,7.70
2013,04,26,02,32,7.70
2013,04,26,02,33,7.70
2013,04,26,02,34,7.70
2013,04,26,02,35,7.70
2013,04,26,02,36,7.70
2013,04,26,02,37,7.70
2013,04,26,02,38,7.70
2013,04,26,02,39,7.70
2013,04,26,02,40,7.70
2013,04,26,02,41,7.70
2013,04,26,02,42,7.70
2013,04,26,02,43,7.70
2013,04,26,02,44,7.70
2013,04,26,02,45,7.70
2013,04,26,02,46,7.70
2013,04,26,02,47,7.70
2013,04,26,02,48,7.70
2013,04,26,02,49,7.70
2013,04,26,02,50,7.70
2013,04,26,02,51,7.70
2013,04,26,02,52,7.70
2013,04,26,02,53,7.70
2013,04,26,02,54,7.70
2013,04,26,02,55,7.70
2013,04,26,02,56,7.70
2013,04,26,02,57,7.70
2013,04,26,02,58,7.70
2013,04,26,02,59,7.70
2013,04,26,03,00,7.70
2013,04,26,03,01,7.70
2013,04,26,03,02,7.70
2013,04,26,03,03,7.70
2013,04,26,03,04,7.70
2013,04,26,03,05,7.70
2013,04,26,03,06,7.70
2013,04,26,03,07,7.70
2013,04,26,03,08,7.70
2013,04,26,03,09,7.60
2013,04,26,03,10,7.60
2013,04,26,03,11,7.60
2013,04,26,03,12,7.60
2013,04,26,03,13,7.60
2013,04,26,03,14,7.60
2013,04,26,03,15,7.60
2013,04,26,03,16,7.60
2013,04,26,03,17,7.60
2013,04,26,03,18,7.60
2013,04,26,03,19,7.60
2013,04,26,03,20,7.60
2013,04,26,03,21,7.60
2013,04,26,03,22,7.60
2013,04,26,03,23,7.60
2013,04,26,03,24,7.60
2013,04,26,03,25,7.60
2013,04,26,03,26,7.60
2013,04,26,03,27,7.60
2013,04,26,03,28,7.60
2013,04,26,03,29,7.60
2013,04,26,03,30,7.60
2013,04,26,03,31,7.60
2013,04,26,03,32,7.60
2013,04,26,03,33,7.60
2013,04,26,03,34,7.60
2013,04,26,03,35,7.60
2013,04,26,03,36,7.60
2013,04,26,03,37,7.60
2013,04,26,03,38,7.60
2013,04,26,03,39,7.60
2013,04,26,03,40,7.60
2013,04,26,03,41,7.60
2013,04,26,03,42,7.60
2013,04,26,03,43,7.60
2013,04,26,03,44,7.60
2013,04,26,03,45,7.60
2013,04,26,03,46,7.60
2013,04,26,03,47,7.60
2013,04,26,03,48,7.60
2013,04,26,03,49,7.60
2013,04,26,03,50,7.60
2013,04,26,03,51,7.60
2013,04,26,03,52,7.60
2013,04,26,03,53,7.60
2013,04,26,03,54,7.60
2013,04,26,03,55,7.60
2013,04,26,03,56,7.60
2013,04,26,03,57,7.60
2013,04,26,03,58,7.60
2013,04,26,03,59,7.60
2013,04,26,04,00,7.60
2013,04,26,04,01,7.60
2013,04,26,04,02,7.50
2013,04,26,04,03,7.50
2013,04,26,04,04,7.50
2013,04,26,04,05,7.50
2013,04,26,04,06,7.50
2013,04,26,04,07,7.50
2013,04,26,04,08,7.50
2013,04,26,04,09,7.50
2013,04,26,04,10,7.50
2013,04,26,04,11,7.50
2013,04,26,04,12,7.50
2013,04,26,04,13,7.50
2013,04,26,04,14,7.50
2013,04,26,04,15,7.50
2013,04,26,04,16,7.50
2013,04,26,04,17,7.50
2013,04,26,04,18,7.50
2013,04,26,04,19,7.50
2013,04,26,04,20,7.50
2013,04,26,04,21,7.50
2013,04,26,04,22,7.50
2013,04,26,04,23,7.50
2013,04,26,04,24,7.50
2013,04,26,04,25,7.50
2013,04,26,04,26,7.50
2013,04,26,04,27,7.50
2013,04,26,04,28,7.50
2013,04,26,04,29,7.50
2013,04,26,04,30,7.40
2013,04,26,04,31,7.40
2013,04,26,04,32,7.40
2013,04,26,04,33,7.40
2013,04,26,04,34,7.40
2013,04,26,04,35,7.40
2013,04,26,04,36,7.40
2013,04,26,04,37,7.40
2013,04,26,04,38,7.40
2013,04,26,04,39,7.40
2013,04,26,04,40,7.30
2013,04,26,04,41,7.30
2013,04,26,04,42,7.30
2013,04,26,04,43,7.30
2013,04,26,04,44,7.30
2013,04,26,04,45,7.30
2013,04,26,04,46,7.30
2013,04,26,04,47,7.30
2013,04,26,04,48,7.30
2013,04,26,04,49,7.30
2013,04,26,04,50,7.30
2013,04,26,04,51,7.30
2013,04,26,04,52,7.30
2013,04,26,04,53,7.30
2013,04,26,04,54,7.30
2013,04,26,04,55,7.30
2013,04,26,04,56,7.30
2013,04,26,04,57,7.30
2013,04,26,04,58,7.30
2013,04,26,04,59,7.30
2013,04,26,05,00,7.30
2013,04,26,05,01,7.30
2013,04,26,05,02,7.30
2013,04,26,05,03,7.30
2013,04,26,05,04,7.30
2013,04,26,05,05,7.30
2013,04,26,05,06,7.30
2013,04,26,05,07,7.20
2013,04,26,05,08,7.20
2013,04,26,05,09,7.20
2013,04,26,05,10,7.20
2013,04,26,05,11,7.20
2013,04,26,05,12,7.20
2013,04,26,05,13,7.20
2013,04,26,05,14,7.10
2013,04,26,05,15,7.10
2013,04,26,05,16,7.10
2013,04,26,05,17,7.10
2013,04,26,05,18,7.10
2013,04,26,05,19,7.10
2013,04,26,05,20,7.10
2013,04,26,05,21,7.10
2013,04,26,05,22,7.00
2013,04,26,05,23,7.00
2013,04,26,05,24,7.00
2013,04,26,05,25,7.00
2013,04,26,05,26,7.00
2013,04,26,05,27,6.90
2013,04,26,05,28,6.90
2013,04,26,05,29,6.90
2013,04,26,05,30,6.90
2013,04,26,05,31,6.90
2013,04,26,05,32,6.90
2013,04,26,05,33,6.90
2013,04,26,05,34,6.90
2013,04,26,05,35,6.80
2013,04,26,05,36,6.80
2013,04,26,05,37,6.80
2013,04,26,05,38,6.80
2013,04,26,05,39,6.80
2013,04,26,05,40,6.80
2013,04,26,05,41,6.80
2013,04,26,05,42,6.80
2013,04,26,05,43,6.80
2013,04,26,05,44,6.80
2013,04,26,05,45,6.80
2013,04,26,05,46,6.80
2013,04,26,05,47,6.80
2013,04,26,05,48,6.80
2013,04,26,05,49,6.80
2013,04,26,05,50,6.80
2013,04,26,05,51,6.80
2013,04,26,05,52,6.80
2013,04,26,05,53,6.70
2013,04,26,05,54,6.80
2013,04,26,05,55,6.80
2013,04,26,05,56,6.80
2013,04,26,05,57,6.80
2013,04,26,05,58,6.80
2013,04,26,05,59,6.70
2013,04,26,06,00,6.70
2013,04,26,06,01,6.70
2013,04,26,06,02,6.60
2013,04,26,06,03,6.60
2013,04,26,06,04,6.60
2013,04,26,06,05,6.70
2013,04,26,06,06,6.70
2013,04,26,06,07,6.70
2013,04,26,06,08,6.70
2013,04,26,06,09,6.70
2013,04,26,06,10,6.70
2013,04,26,06,11,6.70
2013,04,26,06,12,6.70
2013,04,26,06,13,6.70
2013,04,26,06,14,6.70
2013,04,26,06,15,6.70
2013,04,26,06,16,6.70
2013,04,26,06,17,6.70
2013,04,26,06,18,6.70
2013,04,26,06,19,6.70
2013,04,26,06,20,6.70
2013,04,26,06,21,6.70
2013,04,26,06,22,6.60
2013,04,26,06,23,6.60
2013,04,26,06,24,6.60
2013,04,26,06,25,6.60
2013,04,26,06,26,6.60
2013,04,26,06,27,6.60
2013,04,26,06,28,6.60
2013,04,26,06,29,6.60
2013,04,26,06,30,6.60
2013,04,26,06,31,6.60
2013,04,26,06,32,6.60
2013,04,26,06,33,6.60
2013,04,26,06,34,6.60
2013,04,26,06,35,6.60
2013,04,26,06,36,6.60
2013,04,26,06,37,6.60
2013,04,26,06,38,6.60
2013,04,26,06,39,6.60
2013,04,26,06,40,6.60
2013,04,26,06,41,6.60
2013,04,26,06,42,6.60
2013,04,26,06,43,6.60
2013,04,26,06,44,6.50
2013,04,26,06,45,6.40
2013,04,26,06,46,6.40
2013,04,26,06,47,6.40
2013,04,26,06,48,6.40
2013,04,26,06,49,6.40
2013,04,26,06,50,6.40
2013,04,26,06,51,6.40
2013,04,26,06,52,6.40
2013,04,26,06,53,6.40
2013,04,26,06,54,6.40
2013,04,26,06,55,6.40
2013,04,26,06,56,6.40
2013,04,26,06,57,6.40
2013,04,26,06,58,6.40
2013,04,26,06,59,6.40
2013,04,26,07,00,6.40
2013,04,26,07,01,6.40
2013,04,26,07,02,6.50
2013,04,26,07,03,6.60
2013,04,26,07,04,6.60
2013,04,26,07,05,6.60
2013,04,26,07,06,6.60
2013,04,26,07,07,6.60
2013,04,26,07,08,6.60
2013,04,26,07,09,6.70
2013,04,26,07,10,6.70
2013,04,26,07,11,6.80
2013,04,26,07,12,6.80
2013,04,26,07,13,6.90
2013,04,26,07,14,6.90
2013,04,26,07,15,6.90
2013,04,26,07,16,6.90
2013,04,26,07,17,7.00
2013,04,26,07,18,7.00
2013,04,26,07,19,7.00
2013,04,26,07,20,7.10
2013,04,26,07,21,7.10
2013,04,26,07,22,7.20
2013,04,26,07,23,7.30
2013,04,26,07,24,7.30
2013,04,26,07,25,7.30
2013,04,26,07,26,7.40
2013,04,26,07,27,7.40
2013,04,26,07,28,7.40
2013,04,26,07,29,7.50
2013,04,26,07,30,7.50
2013,04,26,07,31,7.50
2013,04,26,07,32,7.60
2013,04,26,07,33,7.60
2013,04,26,07,34,7.70
2013,04,26,07,35,7.70
2013,04,26,07,36,7.80
2013,04,26,07,37,7.80
2013,04,26,07,38,7.80
2013,04,26,07,39,7.80
2013,04,26,07,40,7.80
2013,04,26,07,41,7.80
2013,04,26,07,42,7.90
2013,04,26,07,43,7.90
2013,04,26,07,44,8.00
2013,04,26,07,45,8.10
2013,04,26,07,46,8.10
2013,04,26,07,47,8.20
2013,04,26,07,48,8.30
2013,04,26,07,49,8.40
2013,04,26,07,50,8.40
2013,04,26,07,51,8.50
2013,04,26,07,52,8.60
2013,04,26,07,53,8.70
2013,04,26,07,54,8.70
2013,04,26,07,55,8.70
2013,04,26,07,56,8.70
2013,04,26,07,57,8.70
2013,04,26,07,58,8.80
2013,04,26,07,59,8.80
2013,04,26,08,00,8.90
2013,04,26,08,01,9.00
2013,04,26,08,02,9.10
2013,04,26,08,03,9.20
2013,04,26,08,04,9.20
2013,04,26,08,05,9.10
2013,04,26,08,06,9.10
2013,04,26,08,07,9.00
2013,04,26,08,08,8.90
2013,04,26,08,09,8.80
2013,04,26,08,10,8.70
2013,04,26,08,11,8.70
2013,04,26,08,12,8.70
2013,04,26,08,13,8.70
2013,04,26,08,14,8.70
2013,04,26,08,15,8.70
2013,04,26,08,16,8.80
2013,04,26,08,17,8.80
2013,04,26,08,18,8.80
2013,04,26,08,19,8.90
2013,04,26,08,20,8.90
2013,04,26,08,21,9.00
2013,04,26,08,22,9.10
2013,04,26,08,23,9.20
2013,04,26,08,24,9.30
2013,04,26,08,25,9.40
2013,04,26,08,26,9.50
2013,04,26,08,27,9.60
2013,04,26,08,28,9.60
2013,04,26,08,29,9.60
2013,04,26,08,30,9.60
2013,04,26,08,31,9.60
2013,04,26,08,32,9.70
2013,04,26,08,33,9.70
2013,04,26,08,34,9.70
2013,04,26,08,35,9.70
2013,04,26,08,36,9.70
2013,04,26,08,37,9.70
2013,04,26,08,38,9.70
2013,04,26,08,39,9.60
2013,04,26,08,40,9.50
2013,04,26,08,41,9.50
2013,04,26,08,42,9.40
2013,04,26,08,43,9.40
2013,04,26,08,44,9.40
2013,04,26,08,45,9.30
2013,04,26,08,46,9.30
2013,04,26,08,47,9.40
2013,04,26,08,48,9.40
2013,04,26,08,49,9.50
2013,04,26,08,50,9.60
2013,04,26,08,51,9.70
2013,04,26,08,52,9.70
2013,04,26,08,53,9.60
2013,04,26,08,54,9.70
2013,04,26,08,55,9.70
2013,04,26,08,56,9.70
2013,04,26,08,57,9.70
2013,04,26,08,58,9.70
2013,04,26,08,59,9.80
2013,04,26,09,00,9.80
2013,04,26,09,01,9.90
2013,04,26,09,02,10.00
2013,04,26,09,03,10.10
2013,04,26,09,04,10.10
2013,04,26,09,05,10.20
2013,04,26,09,06,10.30
2013,04,26,09,07,10.40
2013,04,26,09,08,10.50
2013,04,26,09,09,10.60
2013,04,26,09,10,10.60
2013,04,26,09,11,10.70
2013,04,26,09,12,10.80
2013,04,26,09,13,10.80
2013,04,26,09,14,10.80
2013,04,26,09,15,10.90
2013,04,26,09,16,10.90
2013,04,26,09,17,10.90
2013,04,26,09,18,10.90
2013,04,26,09,19,10.90
2013,04,26,09,20,11.00
2013,04,26,09,21,11.10
2013,04,26,09,22,11.10
2013,04,26,09,23,11.20
2013,04,26,09,24,11.40
2013,04,26,09,25,11.40
2013,04,26,09,26,11.50
2013,04,26,09,27,11.60
2013,04,26,09,28,11.60
2013,04,26,09,29,11.70
2013,04,26,09,30,11.80
2013,04,26,09,31,11.80
2013,04,26,09,32,11.80
2013,04,26,09,33,11.80
2013,04,26,09,34,11.80
2013,04,26,09,35,11.80
2013,04,26,09,36,11.80
2013,04,26,09,37,11.80
2013,04,26,09,38,11.80
2013,04,26,09,39,11.90
2013,04,26,09,40,11.90
2013,04,26,09,41,11.90
2013,04,26,09,42,11.90
2013,04,26,09,43,11.90
2013,04,26,09,44,11.90
2013,04,26,09,45,11.90
2013,04,26,09,46,11.80
2013,04,26,09,47,11.70
2013,04,26,09,48,11.60
2013,04,26,09,49,11.60
2013,04,26,09,50,11.60
2013,04,26,09,51,11.60
2013,04,26,09,52,11.60
2013,04,26,09,53,11.60
2013,04,26,09,54,11.50
2013,04,26,09,55,11.40
2013,04,26,09,56,11.50
2013,04,26,09,57,11.60
2013,04,26,09,58,11.60
2013,04,26,09,59,11.60
2013,04,26,10,00,11.60
2013,04,26,10,01,11.60
2013,04,26,10,02,11.60
2013,04,26,10,03,11.60
2013,04,26,10,04,11.60
2013,04,26,10,05,11.60
2013,04,26,10,06,11.60
2013,04,26,10,07,11.50
2013,04,26,10,08,11.40
2013,04,26,10,09,11.40
2013,04,26,10,10,11.30
2013,04,26,10,11,11.20
2013,04,26,10,12,11.20
2013,04,26,10,13,11.20
2013,04,26,10,14,11.10
2013,04,26,10,15,11.10
2013,04,26,10,16,11.10
2013,04,26,10,17,11.10
2013,04,26,10,18,11.10
2013,04,26,10,19,11.10
2013,04,26,10,20,11.10
2013,04,26,10,21,11.00
2013,04,26,10,22,10.90
2013,04,26,10,23,10.90
2013,04,26,10,24,10.90
2013,04,26,10,25,11.00
2013,04,26,10,26,11.10
2013,04,26,10,27,11.10
2013,04,26,10,28,11.20
2013,04,26,10,29,11.20
2013,04,26,10,30,11.30
2013,04,26,10,31,11.40
2013,04,26,10,32,11.40
2013,04,26,10,33,11.40
2013,04,26,10,34,11.60
2013,04,26,10,35,11.70
2013,04,26,10,36,11.80
2013,04,26,10,37,11.90
2013,04,26,10,38,12.00
2013,04,26,10,39,12.00
2013,04,26,10,40,11.90
2013,04,26,10,41,11.90
2013,04,26,10,42,11.90
2013,04,26,10,43,11.90
2013,04,26,10,44,11.90
2013,04,26,10,45,11.90
2013,04,26,10,46,11.90
2013,04,26,10,47,11.90
2013,04,26,10,48,12.00
2013,04,26,10,49,12.00
2013,04,26,10,50,12.10
2013,04,26,10,51,12.10
2013,04,26,10,52,12.00
2013,04,26,10,53,11.80
2013,04,26,10,54,11.80
2013,04,26,10,55,11.80
2013,04,26,10,56,11.80
2013,04,26,10,57,11.80
2013,04,26,10,58,11.80
2013,04,26,10,59,11.80
2013,04,26,11,00,11.70
2013,04,26,11,01,11.60
2013,04,26,11,02,11.60
2013,04,26,11,03,11.60
2013,04,26,11,04,11.70
2013,04,26,11,05,11.60
2013,04,26,11,06,11.60
2013,04,26,11,07,11.60
2013,04,26,11,08,11.80
2013,04,26,11,09,11.80
2013,04,26,11,10,12.00
2013,04,26,11,11,12.10
2013,04,26,11,12,12.20
2013,04,26,11,13,12.10
2013,04,26,11,14,12.10
2013,04,26,11,15,12.20
2013,04,26,11,16,12.10
2013,04,26,11,17,12.10
2013,04,26,11,18,12.00
2013,04,26,11,19,12.00
2013,04,26,11,20,11.90
2013,04,26,11,21,12.00
2013,04,26,11,22,12.00
2013,04,26,11,23,12.10
2013,04,26,11,24,12.20
2013,04,26,11,25,12.30
2013,04,26,11,26,12.50
2013,04,26,11,27,12.50
2013,04,26,11,28,12.70
2013,04,26,11,29,12.80
2013,04,26,11,30,13.00
2013,04,26,11,31,13.20
2013,04,26,11,32,13.30
2013,04,26,11,33,13.40
2013,04,26,11,34,13.50
2013,04,26,11,35,13.60
2013,04,26,11,36,13.60
2013,04,26,11,37,13.80
2013,04,26,11,38,13.90
2013,04,26,11,39,14.00
2013,04,26,11,40,14.10
2013,04,26,11,41,14.10
2013,04,26,11,42,14.20
2013,04,26,11,43,14.20
2013,04,26,11,44,14.20
2013,04,26,11,45,14.30
2013,04,26,11,46,14.40
2013,04,26,11,47,14.50
2013,04,26,11,48,14.60
2013,04,26,11,49,14.80
2013,04,26,11,50,15.00
2013,04,26,11,51,15.00
2013,04,26,11,52,15.10
2013,04,26,11,53,15.20
2013,04,26,11,54,15.30
2013,04,26,11,55,15.50
2013,04,26,11,56,15.70
2013,04,26,11,57,15.90
2013,04,26,11,58,16.10
2013,04,26,11,59,16.20
2013,04,26,12,00,16.30
2013,04,26,12,01,16.40
2013,04,26,12,02,16.50
2013,04,26,12,03,16.60
2013,04,26,12,04,16.60
2013,04,26,12,05,16.60
2013,04,26,12,06,16.70
2013,04,26,12,07,16.70
2013,04,26,12,08,16.70
2013,04,26,12,09,16.70
2013,04,26,12,10,16.70
2013,04,26,12,11,16.70
2013,04,26,12,12,16.70
2013,04,26,12,13,16.70
2013,04,26,12,14,16.70
2013,04,26,12,15,16.70
2013,04,26,12,16,16.70
2013,04,26,12,17,16.70
2013,04,26,12,18,16.70
2013,04,26,12,19,16.80
2013,04,26,12,20,16.70
2013,04,26,12,21,16.70
2013,04,26,12,22,16.70
2013,04,26,12,23,16.80
2013,04,26,12,24,16.90
2013,04,26,12,25,16.80
2013,04,26,12,26,16.70
2013,04,26,12,27,16.70
2013,04,26,12,28,16.70
2013,04,26,12,29,16.70
2013,04,26,12,30,16.80
2013,04,26,12,31,16.80
2013,04,26,12,32,16.80
2013,04,26,12,33,16.90
2013,04,26,12,34,16.90
2013,04,26,12,35,17.00
2013,04,26,12,36,17.00
2013,04,26,12,37,16.90
2013,04,26,12,38,16.90
2013,04,26,12,39,16.80
2013,04,26,12,40,16.70
2013,04,26,12,41,16.70
2013,04,26,12,42,16.70
2013,04,26,12,43,16.70
2013,04,26,12,44,16.70
2013,04,26,12,45,16.70
2013,04,26,12,46,16.70
2013,04,26,12,47,16.70
2013,04,26,12,48,16.70
2013,04,26,12,49,16.70
2013,04,26,12,50,16.70
2013,04,26,12,51,16.80
2013,04,26,12,52,16.80
2013,04,26,12,53,16.80
2013,04,26,12,54,16.70
2013,04,26,12,55,16.70
2013,04,26,12,56,16.70
2013,04,26,12,57,16.70
2013,04,26,12,58,16.70
2013,04,26,12,59,16.70
2013,04,26,13,00,16.70
2013,04,26,13,01,16.70
2013,04,26,13,02,16.70
2013,04,26,13,03,16.70
2013,04,26,13,04,16.70
2013,04,26,13,05,16.60
2013,04,26,13,06,16.60
2013,04,26,13,07,16.60
2013,04,26,13,08,16.60
2013,04,26,13,09,16.70
2013,04,26,13,10,16.70
2013,04,26,13,11,16.70
2013,04,26,13,12,16.70
2013,04,26,13,13,16.70
2013,04,26,13,14,16.70
2013,04,26,13,15,16.70
2013,04,26,13,16,16.70
2013,04,26,13,17,16.70
2013,04,26,13,18,16.80
2013,04,26,13,19,16.80
2013,04,26,13,20,16.70
2013,04,26,13,21,16.70
2013,04,26,13,22,16.80
2013,04,26,13,23,16.80
2013,04,26,13,24,16.90
2013,04,26,13,25,16.90
2013,04,26,13,26,16.90
2013,04,26,13,27,17.00
2013,04,26,13,28,17.00
2013,04,26,13,29,17.00
2013,04,26,13,30,17.10
2013,04,26,13,31,17.10
2013,04,26,13,32,17.10
2013,04,26,13,33,17.10
2013,04,26,13,34,17.10
2013,04,26,13,35,17.20
2013,04,26,13,36,17.20
2013,04,26,13,37,17.10
2013,04,26,13,38,17.10
2013,04,26,13,39,17.10
2013,04,26,13,40,17.10
2013,04,26,13,41,17.10
2013,04,26,13,42,17.10
2013,04,26,13,43,17.10
2013,04,26,13,44,17.00
2013,04,26,13,45,17.00
2013,04,26,13,46,17.00
2013,04,26,13,47,16.90
2013,04,26,13,48,16.90
2013,04,26,13,49,16.90
2013,04,26,13,50,16.90
2013,04,26,13,51,16.90
2013,04,26,13,52,16.90
2013,04,26,13,53,16.90
2013,04,26,13,54,16.90
2013,04,26,13,55,16.90
2013,04,26,13,56,16.90
2013,04,26,13,57,16.80
2013,04,26,13,58,16.90
2013,04,26,13,59,16.90
2013,04,26,14,00,16.90
2013,04,26,14,01,16.90
2013,04,26,14,02,16.90
2013,04,26,14,03,16.90
2013,04,26,14,04,17.00
2013,04,26,14,05,17.00
2013,04,26,14,06,17.00
2013,04,26,14,07,17.00
2013,04,26,14,08,17.00
2013,04,26,14,09,16.90
2013,04,26,14,10,16.90
2013,04,26,14,11,17.00
2013,04,26,14,12,17.00
2013,04,26,14,13,17.10
2013,04,26,14,14,17.00
2013,04,26,14,15,17.00
2013,04,26,14,16,17.00
2013,04,26,14,17,17.00
2013,04,26,14,18,17.00
2013,04,26,14,19,17.00
2013,04,26,14,20,17.00
2013,04,26,14,21,17.00
2013,04,26,14,22,17.00
2013,04,26,14,23,17.00
2013,04,26,14,24,17.00
2013,04,26,14,25,17.00
2013,04,26,14,26,17.00
2013,04,26,14,27,17.00
2013,04,26,14,28,17.00
2013,04,26,14,29,17.10
2013,04,26,14,30,17.10
2013,04,26,14,31,17.10
2013,04,26,14,32,17.10
2013,04,26,14,33,17.10
2013,04,26,14,34,17.10
2013,04,26,14,35,17.10
2013,04,26,14,36,17.10
2013,04,26,14,37,17.10
2013,04,26,14,38,17.00
2013,04,26,14,39,17.00
2013,04,26,14,40,17.00
2013,04,26,14,41,17.10
2013,04,26,14,42,17.20
2013,04,26,14,43,17.30
2013,04,26,14,44,17.40
2013,04,26,14,45,17.40
2013,04,26,14,46,17.40
2013,04,26,14,47,17.50
2013,04,26,14,48,17.60
2013,04,26,14,49,17.70
2013,04,26,14,50,17.70
2013,04,26,14,51,17.80
2013,04,26,14,52,17.90
2013,04,26,14,53,17.90
2013,04,26,14,54,17.90
2013,04,26,14,55,17.90
2013,04,26,14,56,17.90
2013,04,26,14,57,17.80
2013,04,26,14,58,17.80
2013,04,26,14,59,17.90
2013,04,26,15,00,17.90
2013,04,26,15,01,17.90
2013,04,26,15,02,17.90
2013,04,26,15,03,17.90
2013,04,26,15,04,18.00
2013,04,26,15,05,18.10
2013,04,26,15,06,18.10
2013,04,26,15,07,18.10
2013,04,26,15,08,18.10
2013,04,26,15,09,18.20
2013,04,26,15,10,18.10
2013,04,26,15,11,18.00
2013,04,26,15,12,18.00
2013,04,26,15,13,17.90
2013,04,26,15,14,17.90
2013,04,26,15,15,18.00
2013,04,26,15,16,18.10
2013,04,26,15,17,18.00
2013,04,26,15,18,18.10
2013,04,26,15,19,18.10
2013,04,26,15,20,18.10
2013,04,26,15,21,18.20
2013,04,26,15,22,18.20
2013,04,26,15,23,18.20
2013,04,26,15,24,18.20
2013,04,26,15,25,18.20
2013,04,26,15,26,18.30
2013,04,26,15,27,18.40
2013,04,26,15,28,18.40
2013,04,26,15,29,18.50
2013,04,26,15,30,18.60
2013,04,26,15,31,18.70
2013,04,26,15,32,18.70
2013,04,26,15,33,18.70
2013,04,26,15,34,18.70
2013,04,26,15,35,18.70
2013,04,26,15,36,18.60
2013,04,26,15,37,18.50
2013,04,26,15,38,18.50
2013,04,26,15,39,18.50
2013,04,26,15,40,18.50
2013,04,26,15,41,18.50
2013,04,26,15,42,18.50
2013,04,26,15,43,18.60
2013,04,26,15,44,18.60
2013,04,26,15,45,18.60
2013,04,26,15,46,18.60
2013,04,26,15,47,18.60
2013,04,26,15,48,18.50
2013,04,26,15,49,18.50
2013,04,26,15,50,18.40
2013,04,26,15,51,18.30
2013,04,26,15,52,18.20
2013,04,26,15,53,18.20
2013,04,26,15,54,18.20
2013,04,26,15,55,18.20
2013,04,26,15,56,18.20
2013,04,26,15,57,18.20
2013,04,26,15,58,18.20
2013,04,26,15,59,18.30
2013,04,26,16,00,18.30
2013,04,26,16,01,18.30
2013,04,26,16,02,18.30
2013,04,26,16,03,18.30
2013,04,26,16,04,18.30
2013,04,26,16,05,18.30
2013,04,26,16,06,18.30
2013,04,26,16,07,18.20
2013,04,26,16,08,18.20
2013,04,26,16,09,18.20
2013,04,26,16,10,18.20
2013,04,26,16,11,18.20
2013,04,26,16,12,18.10
2013,04,26,16,13,18.10
2013,04,26,16,14,18.10
2013,04,26,16,15,18.10
2013,04,26,16,16,18.00
2013,04,26,16,17,17.90
2013,04,26,16,18,18.00
2013,04,26,16,19,18.10
2013,04,26,16,20,18.10
2013,04,26,16,21,18.10
2013,04,26,16,22,18.10
2013,04,26,16,23,18.10
2013,04,26,16,24,18.10
2013,04,26,16,25,18.20
2013,04,26,16,26,18.10
2013,04,26,16,27,18.00
2013,04,26,16,28,17.90
2013,04,26,16,29,17.80
2013,04,26,16,30,17.80
2013,04,26,16,31,17.80
2013,04,26,16,32,17.80
2013,04,26,16,33,17.80
2013,04,26,16,34,17.80
2013,04,26,16,35,17.80
2013,04,26,16,36,17.80
2013,04,26,16,37,17.80
2013,04,26,16,38,17.90
2013,04,26,16,39,17.80
2013,04,26,16,40,17.80
2013,04,26,16,41,17.80
2013,04,26,16,42,17.80
2013,04,26,16,43,17.90
2013,04,26,16,44,17.90
2013,04,26,16,45,18.10
2013,04,26,16,46,18.10
2013,04,26,16,47,18.10
2013,04,26,16,48,18.10
2013,04,26,16,49,18.10
2013,04,26,16,50,18.10
2013,04,26,16,51,18.00
2013,04,26,16,52,17.90
2013,04,26,16,53,17.90
2013,04,26,16,54,17.90
2013,04,26,16,55,18.00
2013,04,26,16,56,18.10
2013,04,26,16,57,18.20
2013,04,26,16,58,18.20
2013,04,26,16,59,18.10
2013,04,26,17,00,18.10
2013,04,26,17,01,18.00
2013,04,26,17,02,17.90
2013,04,26,17,03,17.90
2013,04,26,17,04,17.90
2013,04,26,17,05,17.90
2013,04,26,17,06,17.90
2013,04,26,17,07,17.90
2013,04,26,17,08,17.90
2013,04,26,17,09,17.90
2013,04,26,17,10,17.80
2013,04,26,17,11,17.80
2013,04,26,17,12,17.90
2013,04,26,17,13,17.90
2013,04,26,17,14,17.90
2013,04,26,17,15,17.90
2013,04,26,17,16,17.90
2013,04,26,17,17,17.90
2013,04,26,17,18,17.90
2013,04,26,17,19,17.90
2013,04,26,17,20,17.90
2013,04,26,17,21,17.80
2013,04,26,17,22,17.70
2013,04,26,17,23,17.70
2013,04,26,17,24,17.60
2013,04,26,17,25,17.50
2013,04,26,17,26,17.50
2013,04,26,17,27,17.40
2013,04,26,17,28,17.40
2013,04,26,17,29,17.30
2013,04,26,17,30,17.30
2013,04,26,17,31,17.20
2013,04,26,17,32,17.20
2013,04,26,17,33,17.10
2013,04,26,17,34,17.10
2013,04,26,17,35,17.10
2013,04,26,17,36,17.10
2013,04,26,17,37,17.10
2013,04,26,17,38,17.00
2013,04,26,17,39,17.00
2013,04,26,17,40,17.00
2013,04,26,17,41,17.00
2013,04,26,17,42,17.00
2013,04,26,17,43,16.90